This is the latest recevied weather packets stored in our database for station/object IK6ZNK-3. If no packets are shown the sender has not sent any weather packets the latest 10 day(s).
| Time | Temp. | Humidity | Pressure | Rain* | Wind** | Luminosity | Snow |
|---|---|---|---|---|---|---|---|
| 1777665607 | 10° C | 58% | 1016.2 hPa | 0 mm | - | - | - |
| 1777665006 | 10° C | 58% | 1016.4 hPa | 0 mm | - | - | - |
| 1777664406 | 10° C | 58% | 1016 hPa | 0 mm | - | - | - |
| 1777663807 | 10° C | 57% | 1016.1 hPa | 0 mm | - | - | - |
| 1777663207 | 10° C | 58% | 1016 hPa | 0 mm | - | - | - |
| 1777662607 | 10.56° C | 57% | 1016 hPa | 0 mm | - | - | - |
| 1777662007 | 10.56° C | 57% | 1015.8 hPa | 0 mm | - | - | - |
| 1777661407 | 10.56° C | 55% | 1015.7 hPa | 0 mm | - | - | - |
| 1777660807 | 10.56° C | 55% | 1015.6 hPa | 0 mm | - | - | - |
| 1777660208 | 10.56° C | 53% | 1015.4 hPa | 0 mm | - | - | - |
| 1777659607 | 11.11° C | 53% | 1015.4 hPa | 0 mm | - | - | - |
| 1777659007 | 11.11° C | 52% | 1015.4 hPa | 0 mm | - | - | - |
| 1777658408 | 11.67° C | 51% | 1015.1 hPa | 0 mm | - | - | - |
| 1777657807 | 11.67° C | 49% | 1015.3 hPa | 0 mm | - | - | - |
| 1777657207 | 12.78° C | 49% | 1015.2 hPa | 0 mm | - | - | - |
| 1777656608 | 12.78° C | 47% | 1015.2 hPa | 0 mm | - | - | - |
| 1777656007 | 13.33° C | 45% | 1014.9 hPa | 0 mm | - | - | - |
| 1777655407 | 13.33° C | 45% | 1015 hPa | 0 mm | - | - | - |
| 1777654808 | 13.89° C | 42% | 1014.9 hPa | 0 mm | - | - | - |
| 1777654211 | 13.89° C | 41% | 1015 hPa | 0 mm | - | - | - |
| 1777653609 | 14.44° C | 40% | 1015.1 hPa | 0 mm | - | - | - |
| 1777653008 | 14.44° C | 40% | 1015 hPa | 0 mm | - | - | - |
| 1777652407 | 13.89° C | 39% | 1015.1 hPa | 0 mm | - | - | - |
| 1777651807 | 13.89° C | 39% | 1015 hPa | 0 mm | - | - | - |
| 1777651209 | 14.44° C | 38% | 1015 hPa | 0 mm | - | - | - |
* Rain latest hour (hover to see other rain measurements)
** Current wind speed in m/s (hover to see current wind gust speed)